sat.trackr.live / text

‹ back to catalog

STARLINK-32620

NORAD 61928 · 2024-207S

PAYLOAD ACTIVE UNKNOWN

§ Identity

Operator
Country
US
Launch date
2024-11-11
Launch site
AFETR
Launch vehicle
Mass (kg)
RCS (m²)

Purposes: comms

External: N2YO · Heavens-Above · Gunter

§ Orbital elements

Epoch: 2026-09-21T15:55:10.872192Z

Period
94.27 min
Inclination
42.9977°
Eccentricity
0.0001108
Mean motion
15.27571957 rev/d
Perigee alt
482.3 km
Apogee alt
483.8 km
Semi-major
6,861.2 km
B*
3.8742e-4
RAAN
254.9875°
Arg perigee
263.7331°
Mean anomaly
96.3394°
Rev number
10,469

§ Raw data

STARLINK-326201 61928U 24207S   26264.66332028  .00010411  00000+0  38742-3 0  99942 61928  42.9977 254.9875 0001108 263.7331  96.3394 15.27571957104694

JSON: /api/v1/satellites/61928 · /tle

For live sub-satellite position, see the globe view (requires WebGL).

§ Visibility from observer

Set your observer location to see the next 7 days of passes ≥ 10°. The values pass through the URL so the page stays shareable.

No JS? Fill the form by hand. The geolocation button needs JavaScript.